Regional Weather Roundup
Issued by NWS Memphis, TN

Home | Current Version | Previous Version | Text Only | Print | Product List | Glossary On
Versions: 1 2 3 4 5 6 7 8 9 10 11 12 13 14 15 16 17 18 19 20 21 22 23 24 25 26 27 28 29 30 31 32 33 34 35 36 37 38 39 40 41 42 43 44 45 46 47 48 49 50
000
ASUS44 KMEG 302300
RWRMEG
MEMPHIS CWA HOURLY WEATHER ROUNDUP
NATIONAL WEATHER SERVICE MEMPHIS TN
600 PM CDT THU MAR 30 2017

...WEST TENNESSEE...

CITY           SKY/WX    TMP DP  RH WIND       PRES   REMARKS
MEMPHIS INTL   MOSUNNY   68  47  46 W16G32    29.63R
NWS MEMPHIS      N/A     68 N/A N/A MISG        N/A
JACKSON        CLOUDY    66  61  84 SW20G28   29.60F
DYERSBURG      CLOUDY    66  50  56 W16G28    29.63R
PARIS          CLOUDY    59  57  94 SW10      29.60R


...EASTERN ARKANSAS...

CITY           SKY/WX    TMP DP  RH WIND       PRES   REMARKS
JONESBORO      CLOUDY    60  44  55 W14G25    29.66R
WEST MEMPHIS   MOSUNNY   65  47  52 W12G25    29.64R
BATESVILLE     CLOUDY    55  41  58 W17       29.70R
NEWPORT        CLOUDY    60  44  55 W18G29    29.68R
WALNUT RIDGE   CLOUDY    61  39  44 SW18G28   29.66R
BLYTHEVILLE    SUNNY     63  49  60 W24G32    29.62
SEARCY         CLOUDY    59  46  62 W8        29.72R
STUTTGART      PTSUNNY   63  39  42 W18       29.71S
PINE BLUFF     MOSUNNY   64  44  48 W17G29    29.72R
MONTICELLO     PTSUNNY   67  44  43 W14G20    29.71R


...NORTH MISSISSIPPI...

CITY           SKY/WX    TMP DP  RH WIND       PRES   REMARKS
TUPELO         MOSUNNY   72  50  45 S18G26    29.65F
BATESVILLE     PTSUNNY   70  57  64 SW18G24   29.65R
TUNICA         MOSUNNY   68  46  45 W26       29.65R
GREENWOOD      CLOUDY    67  64  90 SW12G20   29.68S
COLUMBUS       MOSUNNY   74  53  48 SW8       29.68R
STARKVILLE     MOSUNNY   73  52  46 SW9       29.71R
GOLDEN TRIANGL MOSUNNY   73  50  43 SW12G18   29.66R


...SOUTHEAST MISSOURI...

CITY           SKY/WX    TMP DP  RH WIND       PRES   REMARKS
KENNETT        SUNNY     63  46  55 W21G30    29.62R
MALDEN         MOSUNNY   63  45  51 SW20G28   29.64R
WEST PLAINS    CLOUDY    51  42  71 W13G20    29.66R
POPLAR BLUFF   CLOUDY    59  42  53 W13G26    29.63R
CAPE GIRARDEAU SUNNY     63  47  55 SW21G31   29.58R


...NORTHWEST ALABAMA...

CITY           SKY/WX    TMP DP  RH WIND       PRES   REMARKS
MUSCLE SHOALS  PTSUNNY   74  53  48 SW16G29   29.68R


...MIDDLE TENNESSEE...

CITY           SKY/WX    TMP DP  RH WIND       PRES   REMARKS
NASHVILLE      CLOUDY    76  52  43 S15G22    29.63F
CLARKSVILLE    CLOUDY    73  52  47 S16G28    29.58F
COLUMBIA       MOSUNNY   73  55  53 SW13      29.62F


...WESTERN KENTUCKY...

CITY           SKY/WX    TMP DP  RH WIND       PRES   REMARKS
PADUCAH        SUNNY     67  49  52 W21G31    29.56R
FORT CAMPBELL  PTSUNNY   73  53  48 SW23G31   29.58F


...CENTRAL ARKANSAS...

CITY           SKY/WX    TMP DP  RH WIND       PRES   REMARKS
LITTLE ROCK    PTSUNNY   60  44  55 SW17G24   29.71S


SKY/WX REPORTED AS FAIR MEANS FEW OR NO CLOUDS BELOW
12 THOUSAND FEET.





USA.gov is the U.S. government's official web portal to all federal, state and local government web resources and services.